Weather History for KPKD - December, 2011

Change the Weather History Date:

Saturday, December 24, 2011

  Actual Average Record
Temperature  
Mean Temperature 20 °F -  
Max Temperature 35 °F 16 °F 43 °F (1950)
Min Temperature 6 °F -3 °F -33 °F (1983)
Degree Days  
Heating Degree Days 44    
Moisture  
Dew Point 16 °F    
Average Humidity 75    
Maximum Humidity 92    
Minimum Humidity 57    
Precipitation  
Precipitation 0.00 in - - ()
Sea Level Pressure  
Sea Level Pressure 30.01 in    
Wind  
Wind Speed 8 mph (WSW)    
Max Wind Speed 25 mph    
Max Gust Speed 32 mph    
Visibility 10 miles    
Events      
Averages and records for this station are not official NWS values.
T = Trace of Precipitation, MM = Missing Value Source: NWS Daily Summary

Daily Weather History Graph

Daily Weather History Graph

Search for Another Location

Airport or City:

Trip Planner

Search our weather history database for the weather conditions in past years. The results will help you decide how hot, cold, wet, or windy it might be!

Date:

Astronomy

Dec. 24, 2011 Rise Set
Actual Time 8:04 AM CST 4:35 PM CST
Civil Twilight 7:28 AM CST 5:11 PM CST
Nautical Twilight 6:49 AM CST 5:49 PM CST
Astronomical Twilight 6:12 AM CST 6:26 PM CST
Moon 7:52 AM CST (12/24) 4:50 PM CST (12/24)
Length of Visible Light 9h 42m
Length of Day
8h 31m
New Moon, 0% of the Moon is Illuminated
Dec 24
New Moon
Dec 24
New
Jan 1
First Quarter
Jan 9
Full
Jan 16
Last Quarter

Hourly Weather History & Observations

Time (CST) Temp. Windchill Dew Point Humidity Pressure Visibility Wind Dir Wind Speed Gust Speed Precip Events Conditions
12:53 AM 10.9 °F 1.4 °F 9.0 °F 92% 30.12 in 8.0 mi South 5.8 mph - N/A   Clear
1:53 AM 10.9 °F 1.4 °F 8.1 °F 88% 30.09 in 9.0 mi SE 5.8 mph - N/A   Clear
2:53 AM 12.9 °F 0.7 °F 10.0 °F 88% 30.09 in 10.0 mi SE 9.2 mph - N/A   Clear
3:53 AM 12.9 °F 2.6 °F 10.0 °F 88% 30.08 in 10.0 mi SE 6.9 mph - N/A   Clear
4:53 AM 12.9 °F 3.8 °F 10.0 °F 88% 30.05 in 10.0 mi ESE 5.8 mph - N/A   Clear
5:53 AM 10.0 °F 1.8 °F 7.0 °F 87% 30.06 in 10.0 mi SSE 4.6 mph - N/A   Clear
6:53 AM 10.9 °F 2.9 °F 8.1 °F 88% 30.05 in 10.0 mi SE 4.6 mph - N/A   Clear
7:53 AM 8.1 °F - 5.0 °F 87% 30.04 in 9.0 mi Calm Calm - N/A   Clear
8:53 AM 6.1 °F - 3.0 °F 87% 30.05 in 10.0 mi Calm Calm - N/A   Clear
9:53 AM 15.1 °F 7.7 °F 12.0 °F 88% 30.05 in 10.0 mi West 4.6 mph - N/A   Clear
10:53 AM 25.0 °F 14.8 °F 21.0 °F 85% 30.04 in 10.0 mi West 10.4 mph - N/A   Clear
11:53 AM 30.9 °F 21.7 °F 21.9 °F 69% 30.01 in 10.0 mi West 11.5 mph - N/A   Clear
12:53 PM 32.0 °F 22.1 °F 21.2 °F 64% 29.92 in 10.0 mi West 13.8 mph - N/A   Clear
1:53 PM 32.0 °F 23.0 °F 21.2 °F 64% 29.93 in 10.0 mi West 11.5 mph - N/A   Clear
2:53 PM 33.1 °F 23.9 °F 21.9 °F 64% 29.99 in 10.0 mi West 12.7 mph - N/A   Mostly Cloudy
3:53 PM 33.1 °F 25.5 °F 23.0 °F 66% 29.99 in 10.0 mi WSW 9.2 mph - N/A   Partly Cloudy
4:53 PM 30.9 °F 23.5 °F 23.0 °F 72% 29.99 in 10.0 mi WSW 8.1 mph - N/A   Clear
5:53 PM 30.0 °F 20.5 °F 21.0 °F 69% 29.99 in 10.0 mi WSW 11.5 mph - N/A   Clear
6:53 PM 30.9 °F 21.7 °F 21.0 °F 67% 29.98 in 10.0 mi West 11.5 mph - N/A   Clear
7:53 PM 32.0 °F 22.5 °F 21.0 °F 64% 29.96 in 10.0 mi West 12.7 mph - N/A   Partly Cloudy
8:53 PM 34.0 °F 24.6 °F 21.0 °F 59% 29.96 in 10.0 mi West 13.8 mph - N/A   Clear
9:53 PM 35.1 °F 23.0 °F 21.0 °F 57% 29.95 in 10.0 mi WNW 24.2 mph 31.1 mph N/A   Clear
10:53 PM 35.1 °F 22.7 °F 21.9 °F 59% 29.95 in 10.0 mi WNW 25.3 mph 32.2 mph N/A   Partly Cloudy
11:53 PM 35.1 °F 23.8 °F 23.0 °F 61% 29.97 in 10.0 mi WNW 20.7 mph 28.8 mph N/A   Overcast